Regional Weather Roundup
Issued by NWS

Home | Current Version | Previous Version | Graphics & Text | Print | Product List | Glossary On
Versions: 1 2 3 4 5 6 7 8 9 10 11 12 13 14 15 16 17 18 19 20 21 22 23 24 25 26 27 28 29 30 31 32 33 34 35 36 37 38 39 40 41 42 43 44 45 46 47 48 49
000
ASUS45 KPSR 251010
RWRAZ

ARIZONA REGIONAL HOURLY WEATHER ROUNDUP
NATIONAL WEATHER SERVICE TUCSON AZ
300 AM MST SUN JUN 25 2017

NOTE: FAIR INDICATES FEW OR NO CLOUDS BELOW 12,000 FEET WITH NO
SIGNIFICANT WEATHER AND/OR OBSTRUCTIONS TO VISIBILITY.

AZZ001>003-036-251100-
NORTHWEST ARIZONA

CITY           SKY/WX    TMP DP  RH WIND       PRES   REMARKS
BULLHEAD CITY  CLOUDY   100  34  10 CALM      29.66S
KINGMAN        MOCLDY    82  28  14 CALM      29.93S
$$

AZZ004>008-015-016-018-251100-
NORTH CENTRAL ARIZONA

CITY           SKY/WX    TMP DP  RH WIND       PRES   REMARKS
GRAND CANYON   MOCLDY    53  28  38 NE3       30.24S
PRESCOTT       MOCLDY    78  38  23 S7        30.12R
FLAGSTAFF      MOCLDY    67  30  25 SW6       30.26S
PAYSON         CLOUDY    81  37  21 VRB3      30.19R
PAGE           CLEAR     76  25  15 S3        30.04S
$$

AZZ009>014-017-251100-
NORTHEAST ARIZONA

CITY           SKY/WX    TMP DP  RH WIND       PRES   REMARKS
WINSLOW        PTCLDY    76  35  22 SW7       30.09S
SAINT JOHNS    PTCLDY    71  40  32 SE9       30.17S
WINDOW ROCK    MOCLDY    55  29  36 S3        30.28R
SHOW LOW       MOCLDY    72  41  33 S17       30.25S
$$

AZZ023-251100-
GREATER PHOENIX AREA

CITY           SKY/WX    TMP DP  RH WIND       PRES   REMARKS
PHOENIX        CLOUDY    97  43  15 SE9       29.76R
BUCKEYE          N/A     93  48  21 CALM      29.74R
LUKE AFB       MOCLDY    97  50  20 SE7       29.74R
DEER VALLEY    CLOUDY    97  44  16 SE9       29.79R
SCOTTSDALE     MOCLDY    95  43  16 S3        29.81R
MESA-GATEWAY   PTCLDY    93  52  24 SE14      29.80S
$$

AZZ027-028-251100-
SOUTHWEST MARICOPA COUNTY AND PINAL COUNTY

CITY           SKY/WX    TMP DP  RH WIND       PRES   REMARKS
CASA GRANDE    PTCLDY    93  48  21 SE7       29.81S
$$

AZZ503-504-507>509-251100-
SOUTHEAST ARIZONA

CITY           SKY/WX    TMP DP  RH WIND       PRES   REMARKS
TUCSON         PTCLDY    89  54  30 E18       29.96F
DAVIS-MONTHAN  PTCLDY    88  53  29 SE15G28   29.95F
NOGALES        PTCLDY    78  52  40 E5        30.07F
SIERRA VISTA   PTCLDY    74  53  48 S7        30.15F
DOUGLAS        MOCLDY    74  55  51 E9        30.15R
SAFFORD        MOCLDY    81  55  40 E20G26    30.05R
$$

AZZ020-021-025-026-031-251100-
SOUTHWEST ARIZONA

CITY           SKY/WX    TMP DP  RH WIND       PRES   REMARKS
YUMA           PTCLDY    87  54  32 S13       29.70R
$$

CAZ031-033-041-043-047-048-061-251100-
SOUTHERN CALIFORNIA

CITY           SKY/WX    TMP DP  RH WIND       PRES   REMARKS
DOWNTOWN L.A.  CLEAR     65  60  84 CALM      29.85F
L.A. AIRPORT   PTCLDY    64  61  90 SW3       29.86S
SAN DIEGO      CLOUDY    65  62  90 N5        29.88S
BURBANK        CLEAR     67  59  75 E3        29.86S
ONTARIO        CLEAR     70  59  68 SW3       29.87R
RIVERSIDE      CLEAR     68  61  78 SW3       29.87S
PALM SPRINGS   CLEAR     89  56  32 CALM      29.71S
EL CENTRO NAS  CLEAR     94  39  14 SW8       29.67S
IMPERIAL       CLEAR     89  50  26 W9        29.64F
BLYTHE         CLEAR     89  54  30 NW6       29.67S
NEEDLES        MOCLDY   107  30   7 W17       29.69R
$$

NVZ020-UTZ003-251100-
SOUTHERN NEVADA-UTAH

CITY           SKY/WX    TMP DP  RH WIND       PRES   REMARKS
LAS VEGAS      MOCLDY    96  30   9 CALM      29.83R
SALT LAKE CITY CLEAR     67  42  40 SE5       30.15S
$$

NMZ009-TXZ055-251100-
NEW MEXICO-WEST TEXAS

CITY           SKY/WX    TMP DP  RH WIND       PRES   REMARKS
ALBUQUERQUE    CLEAR     68  51  54 E7        30.28R
EL PASO        CLOUDY    75  60  59 E3        30.18R
$$


........................KEY........................
SKY/WX - SKY CONDITION/WEATHER
TMP    - TEMPERATURE IN FAHRENHEIT
DP     - DEWPOINT IN FAHRENHEIT
RH     - RELATIVE HUMIDITY IN PERCENT
WIND   - DIRECTION AND SPEED IN MILES PER HOUR (MPH)
VRB    - VARIABLE WIND DIRECTION
PRES   - MEAN SEA LEVEL PRESSURE IN INCHES OF MERCURY
         F - FALLING PRESSURE   R - RISING PRESSURE
         S - STEADY PRESSURE
VSB    - VISIBILITY IN MILES
HX     - HEAT INDEX IN FAHRENHEIT
WCI    - WIND CHILL INDEX IN FAHRENHEIT
TC     - TEMPERATURE IN CELSIUS WHICH IS ALSO KNOWN AS
         TEMPERATURE IN CENTIGRADE
AFB    - AIR FORCE BASE
         LUKE AFB IS LUKE AIR FORCE BASE
         DAVIS-MONTHAN IS DAVIS-MONTHAN AIR FORCE BASE
NAS    - NAVAL AIR STATION
         EL CENTRO NAS IS EL CENTRO NAVAL AIR STATION
N/A    - NOT AVAILABLE





USA.gov is the U.S. government's official web portal to all federal, state and local government web resources and services.